Regional Weather Roundup
Issued by NWS

Home | Current Version | Previous Version | Graphics & Text | Print | Product List | Glossary On
Versions: 1 2 3 4 5 6 7 8 9 10 11 12 13 14 15 16 17 18 19 20 21 22 23 24 25 26 27 28 29 30 31 32 33 34 35 36 37 38 39 40 41 42 43 44 45 46 47 48 49 50
000
ASUS43 KLSX 241907
RWRMO

WEATHER SUMMARY FOR MISSOURI
NATIONAL WEATHER SERVICE SPRINGFIELD MO
200 PM CDT SUN MAY 24 2015

NOTE: "FAIR" INDICATES FEW OR NO CLOUDS BELOW 12,000 FEET WITH NO
       SIGNIFICANT WEATHER AND/OR OBSTRUCTIONS TO VISIBILITY.
       CURRENT SKY AND/OR WEATHER CONDITIONS ARE NOT AVAILABLE FOR
       CHILLICOTHE AND FARMINGTON.

MOZ001>031-035>038-043-044-053-054-242000-
...NORTHERN AND WESTERN MISSOURI...

CITY           SKY/WX    TMP DP  RH WIND       PRES   REMARKS
KANSAS CTY INT CLOUDY    68  63  84 SW7       29.87F
KANSAS C DTWN  LGT RAIN  71  64  78 SW8       29.86F
LEE`S SUMMIT   LGT RAIN  67  63  87 SW5       29.89S
ST JOSEPH      CLOUDY    70  64  81 S14       29.85F
CHILLICOTHE      N/A     72  66  81 S7        29.88F
KIRKSVILLE     PTSUNNY   72  68  87 SW12      29.90F

$$
MOZ066>068-077>081-088>096-101>105-242000-
...SOUTHWEST MISSOURI...

CITY           SKY/WX    TMP DP  RH WIND       PRES   REMARKS
SPRINGFIELD    LGT RAIN  67  63  87 S15       29.94R
JOPLIN         LGT RAIN  67  65  93 S8        29.93S FOG

$$
MOZ032>034-039>042-045>050-055>058-069>072-242000-
...CENTRAL MISSOURI...

CITY           SKY/WX    TMP DP  RH WIND       PRES   REMARKS
COLUMBIA       PTSUNNY   79  66  64 S20G29    29.91F
JEFFERSON CITY PTSUNNY   81  64  56 SE17      29.90F
ROLLA          PTSUNNY   78  66  66 S24G33    29.94F
SEDALIA        LGT RAIN  76  67  73 S21G37    29.88S
WHITEMAN AFB   HVY RAIN  66  64  94 SE2       29.88R FOG
WARRENSBURG    LGT RAIN  64  63  94 CALM      29.88F
OSAGE BEACH    MOSUNNY   81  64  57 S16G22    29.90F

$$
MOZ051-052-059>065-242000-
...EAST CENTRAL MISSOURI...

CITY           SKY/WX    TMP DP  RH WIND       PRES   REMARKS
ST LOUIS INTL  PTSUNNY   85  62  46 S15G31    29.98F
SPIRIT OF STL  PTSUNNY   83  64  52 S17G31    29.96F
ST CHARLES     PTSUNNY   82  64  54 S20G29    29.96F

$$
MOZ072>076-082>087-097>100-106>115-242000-
...SOUTH CENTRAL AND SOUTHEAST MISSOURI...

CITY           SKY/WX    TMP DP  RH WIND       PRES   REMARKS
CAPE GIRARDEAU PTSUNNY   84  66  54 S18G24    30.04F
FARMINGTON     PTSUNNY   82  64  54 S20G28    30.05F
POPLAR BLUFF   CLOUDY    82  65  56 S17G25    30.00F
WEST PLAINS    PTSUNNY   78  66  66 S16G24    29.99F

$$


USA.gov is the U.S. government's official web portal to all federal, state and local government web resources and services.